Time,TemperatureF,DewpointF,PressureIn,WindDirection,WindDirectionDegrees,WindSpeedMPH,WindSpeedGustMPH,Humidity,HourlyPrecipIn,Conditions,Clouds,dailyrainin,SoftwareType,DateUTC
2013-04-06 00:29:00,53.5,40.0,29.81,SE,139,4.0,18.0,61,0.00,,,0.00,weatherlink.com 1.10,2013-04-06 05:29:00,
2013-04-06 00:44:00,53.2,40.0,29.80,SE,146,9.0,17.0,62,0.00,,,0.00,weatherlink.com 1.10,2013-04-06 05:44:00,
2013-04-06 00:59:00,52.9,41.0,29.80,SE,129,5.0,15.0,64,0.00,,,0.00,weatherlink.com 1.10,2013-04-06 05:59:00,
2013-04-06 01:14:00,53.0,41.0,29.80,SE,141,7.0,14.0,65,0.00,,,0.00,weatherlink.com 1.10,2013-04-06 06:14:00,
2013-04-06 01:29:00,52.9,42.0,29.80,SE,134,7.0,17.0,66,0.00,,,0.00,weatherlink.com 1.10,2013-04-06 06:29:00,
2013-04-06 01:44:00,52.6,41.0,29.79,SE,141,6.0,12.0,66,0.00,,,0.00,weatherlink.com 1.10,2013-04-06 06:44:00,
2013-04-06 01:59:00,52.4,42.0,29.79,SE,133,6.0,14.0,67,0.00,,,0.00,weatherlink.com 1.10,2013-04-06 06:59:00,
2013-04-06 02:14:00,52.3,42.0,29.78,SE,135,5.0,13.0,67,0.00,,,0.00,weatherlink.com 1.10,2013-04-06 07:14:00,
2013-04-06 02:29:00,52.1,42.0,29.76,SE,136,9.0,17.0,68,0.00,,,0.00,weatherlink.com 1.10,2013-04-06 07:29:00,
2013-04-06 02:44:00,52.3,42.0,29.75,SE,136,8.0,20.0,67,0.00,,,0.00,weatherlink.com 1.10,2013-04-06 07:44:00,
2013-04-06 02:59:00,52.8,42.0,29.76,SE,141,10.0,24.0,67,0.00,,,0.00,weatherlink.com 1.10,2013-04-06 07:59:00,
2013-04-06 03:14:00,52.9,42.0,29.74,SSE,152,10.0,19.0,67,0.00,,,0.00,weatherlink.com 1.10,2013-04-06 08:14:00,
2013-04-06 03:29:00,53.2,42.0,29.75,SE,141,7.0,16.0,67,0.00,,,0.00,weatherlink.com 1.10,2013-04-06 08:29:00,
2013-04-06 03:44:00,53.1,42.0,29.74,SE,131,6.0,11.0,67,0.00,,,0.00,weatherlink.com 1.10,2013-04-06 08:44:00,
2013-04-06 04:00:00,52.6,42.0,29.72,SE,127,7.0,11.0,68,0.00,,,0.00,weatherlink.com 1.10,2013-04-06 09:00:00,
2013-04-06 04:14:00,52.4,42.0,29.71,SE,126,5.0,15.0,68,0.00,,,0.00,weatherlink.com 1.10,2013-04-06 09:14:00,
2013-04-06 04:29:00,52.6,42.0,29.71,SE,144,7.0,11.0,68,0.00,,,0.00,weatherlink.com 1.10,2013-04-06 09:29:00,
2013-04-06 04:45:00,53.1,42.0,29.71,SSE,147,9.0,15.0,67,0.00,,,0.00,weatherlink.com 1.10,2013-04-06 09:45:00,
2013-04-06 05:00:00,53.4,42.0,29.70,SE,144,3.0,9.0,66,0.00,,,0.00,weatherlink.com 1.10,2013-04-06 10:00:00,
2013-04-06 05:15:00,53.5,42.0,29.70,SE,145,0.0,9.0,66,0.00,,,0.00,weatherlink.com 1.10,2013-04-06 10:15:00,
2013-04-06 05:30:00,54.4,42.0,29.69,SE,146,2.0,15.0,63,0.00,,,0.00,weatherlink.com 1.10,2013-04-06 10:30:00,
2013-04-06 05:45:00,54.8,41.0,29.69,South,171,0.0,8.0,61,0.00,,,0.00,weatherlink.com 1.10,2013-04-06 10:45:00,
2013-04-06 06:00:00,54.2,41.0,29.68,SSE,151,6.0,11.0,62,0.00,,,0.00,weatherlink.com 1.10,2013-04-06 11:00:00,
2013-04-06 06:15:00,53.9,41.0,29.68,SSE,166,0.0,13.0,63,0.00,,,0.00,weatherlink.com 1.10,2013-04-06 11:15:00,
2013-04-06 06:30:00,54.2,41.0,29.67,SSE,161,6.0,13.0,62,0.00,,,0.00,weatherlink.com 1.10,2013-04-06 11:30:00,
2013-04-06 06:45:00,54.3,41.0,29.67,SSE,158,1.0,12.0,62,0.00,,,0.00,weatherlink.com 1.10,2013-04-06 11:45:00,
2013-04-06 07:00:00,53.7,41.0,29.67,South,169,4.0,17.0,63,0.00,,,0.00,weatherlink.com 1.10,2013-04-06 12:00:00,
2013-04-06 07:15:00,53.3,41.0,29.67,SSE,158,6.0,18.0,63,0.00,,,0.00,weatherlink.com 1.10,2013-04-06 12:15:00,
2013-04-06 07:30:00,53.6,41.0,29.67,SE,146,1.0,12.0,63,0.00,,,0.00,weatherlink.com 1.10,2013-04-06 12:30:00,
2013-04-06 07:45:00,54.2,42.0,29.66,SSE,160,5.0,17.0,63,0.00,,,0.00,weatherlink.com 1.10,2013-04-06 12:45:00,
2013-04-06 08:15:00,55.5,42.0,29.64,South,178,12.0,17.0,60,0.00,,,0.00,weatherlink.com 1.10,2013-04-06 13:15:00,
2013-04-06 08:30:00,55.6,42.0,29.64,SSW,195,11.0,15.0,60,0.00,,,0.00,weatherlink.com 1.10,2013-04-06 13:30:00,
2013-04-06 08:45:00,56.2,42.0,29.63,South,170,5.0,18.0,59,0.00,,,0.00,weatherlink.com 1.10,2013-04-06 13:45:00,
2013-04-06 09:00:00,56.8,42.0,29.63,South,175,2.0,18.0,59,0.00,,,0.00,weatherlink.com 1.10,2013-04-06 14:00:00,
2013-04-06 09:15:00,58.8,43.0,29.62,SSE,157,14.0,20.0,57,0.00,,,0.00,weatherlink.com 1.10,2013-04-06 14:15:00,
2013-04-06 09:30:00,58.6,43.0,29.62,South,183,9.0,20.0,57,0.00,,,0.00,weatherlink.com 1.10,2013-04-06 14:30:00,
2013-04-06 09:45:00,57.7,43.0,29.61,SSE,161,8.0,20.0,59,0.00,,,0.00,weatherlink.com 1.10,2013-04-06 14:45:00,
2013-04-06 10:00:00,57.8,44.0,29.61,South,174,6.0,19.0,60,0.00,,,0.00,weatherlink.com 1.10,2013-04-06 15:00:00,
2013-04-06 10:15:00,58.5,44.0,29.60,South,190,6.0,23.0,59,0.00,,,0.00,weatherlink.com 1.10,2013-04-06 15:15:00,
2013-04-06 10:30:00,59.1,45.0,29.60,SSW,203,12.0,24.0,59,0.00,,,0.00,weatherlink.com 1.10,2013-04-06 15:30:00,
2013-04-06 10:45:00,60.6,46.0,29.60,SW,224,18.0,23.0,58,0.00,,,0.00,weatherlink.com 1.10,2013-04-06 15:45:00,
2013-04-06 11:00:00,60.6,46.0,29.59,SW,228,21.0,22.0,58,0.00,,,0.00,weatherlink.com 1.10,2013-04-06 16:00:00,
2013-04-06 11:15:00,60.7,46.0,29.59,SSW,200,13.0,26.0,58,0.00,,,0.00,weatherlink.com 1.10,2013-04-06 16:15:00,
2013-04-06 11:30:00,61.6,46.0,29.58,SSW,213,9.0,28.0,58,0.00,,,0.00,weatherlink.com 1.10,2013-04-06 16:30:00,
2013-04-06 11:45:00,61.8,47.0,29.58,South,180,10.0,22.0,59,0.00,,,0.00,weatherlink.com 1.10,2013-04-06 16:45:00,
2013-04-06 12:00:00,61.8,47.0,29.58,SW,225,9.0,23.0,59,0.00,,,0.00,weatherlink.com 1.10,2013-04-06 17:00:00,
2013-04-06 12:15:00,61.8,47.0,29.58,SW,216,15.0,24.0,59,0.00,,,0.00,weatherlink.com 1.10,2013-04-06 17:15:00,
2013-04-06 12:30:00,62.0,47.0,29.57,SW,219,9.0,22.0,59,0.00,,,0.00,weatherlink.com 1.10,2013-04-06 17:30:00,
2013-04-06 12:45:00,62.3,48.0,29.57,SW,222,16.0,21.0,60,0.00,,,0.00,weatherlink.com 1.10,2013-04-06 17:45:00,
2013-04-06 13:00:00,62.9,49.0,29.56,SW,217,13.0,23.0,60,0.00,,,0.00,weatherlink.com 1.10,2013-04-06 18:00:00,
2013-04-06 13:16:00,64.8,49.0,29.56,SSW,198,7.0,23.0,57,0.00,,,0.00,weatherlink.com 1.10,2013-04-06 18:16:00,
2013-04-06 13:31:00,64.9,49.0,29.55,SSW,213,8.0,27.0,56,0.00,,,0.00,weatherlink.com 1.10,2013-04-06 18:31:00,
2013-04-06 13:46:00,64.3,49.0,29.55,SSW,213,7.0,19.0,57,0.00,,,0.00,weatherlink.com 1.10,2013-04-06 18:46:00,
2013-04-06 14:01:00,64.8,49.0,29.55,South,188,11.0,17.0,58,0.00,,,0.00,weatherlink.com 1.10,2013-04-06 19:01:00,
2013-04-06 14:16:00,67.7,50.0,29.54,West,267,16.0,25.0,53,0.00,,,0.00,weatherlink.com 1.10,2013-04-06 19:16:00,
2013-04-06 14:46:00,70.3,50.0,29.53,WSW,240,6.0,21.0,48,0.00,,,0.00,weatherlink.com 1.10,2013-04-06 19:46:00,
2013-04-06 15:01:00,69.5,49.0,29.53,WSW,240,16.0,23.0,48,0.00,,,0.00,weatherlink.com 1.10,2013-04-06 20:01:00,
2013-04-06 15:31:00,67.4,48.0,29.53,WSW,257,13.0,24.0,51,0.00,,,0.00,weatherlink.com 1.10,2013-04-06 20:31:00,
2013-04-06 16:31:00,63.1,47.0,29.56,WNW,296,7.0,21.0,56,0.00,,,0.00,weatherlink.com 1.10,2013-04-06 21:31:00,
2013-04-06 16:46:00,63.1,46.0,29.57,West,275,16.0,22.0,54,0.00,,,0.00,weatherlink.com 1.10,2013-04-06 21:46:00,
2013-04-06 17:01:00,63.5,45.0,29.58,West,263,10.0,21.0,52,0.00,,,0.00,weatherlink.com 1.10,2013-04-06 22:01:00,
2013-04-06 17:16:00,64.7,46.0,29.58,WNW,288,20.0,20.0,52,0.00,,,0.00,weatherlink.com 1.10,2013-04-06 22:16:00,
2013-04-06 17:31:00,63.9,46.0,29.59,WNW,294,4.0,26.0,52,0.00,,,0.00,weatherlink.com 1.10,2013-04-06 22:31:00,
2013-04-06 18:01:00,62.1,45.0,29.61,WNW,286,9.0,20.0,54,0.00,,,0.00,weatherlink.com 1.10,2013-04-06 23:01:00,
2013-04-06 18:16:00,61.4,44.0,29.62,WNW,286,8.0,22.0,54,0.00,,,0.00,weatherlink.com 1.10,2013-04-06 23:16:00,
2013-04-06 18:31:00,61.8,45.0,29.63,West,277,10.0,23.0,54,0.00,,,0.00,weatherlink.com 1.10,2013-04-06 23:31:00,
2013-04-06 18:46:00,62.5,45.0,29.63,WNW,288,7.0,18.0,53,0.00,,,0.00,weatherlink.com 1.10,2013-04-06 23:46:00,
2013-04-06 19:01:00,62.3,45.0,29.64,West,279,4.0,19.0,54,0.00,,,0.00,weatherlink.com 1.10,2013-04-07 00:01:00,
2013-04-06 19:16:00,61.9,45.0,29.65,West,280,16.0,21.0,54,0.00,,,0.00,weatherlink.com 1.10,2013-04-07 00:16:00,
2013-04-06 19:31:00,61.4,44.0,29.66,West,273,24.0,24.0,54,0.00,,,0.00,weatherlink.com 1.10,2013-04-07 00:31:00,
2013-04-06 19:46:00,60.8,43.0,29.66,West,277,10.0,19.0,53,0.00,,,0.00,weatherlink.com 1.10,2013-04-07 00:46:00,
2013-04-06 20:16:00,58.8,43.0,29.68,WNW,288,6.0,11.0,57,0.00,,,0.00,weatherlink.com 1.10,2013-04-07 01:16:00,
2013-04-06 20:31:00,57.9,43.0,29.68,WNW,285,1.0,8.0,58,0.00,,,0.00,weatherlink.com 1.10,2013-04-07 01:31:00,
2013-04-06 20:46:00,57.1,43.0,29.69,WNW,284,6.0,7.0,60,0.00,,,0.00,weatherlink.com 1.10,2013-04-07 01:46:00,
2013-04-06 21:01:00,56.5,43.0,29.69,WNW,284,4.0,6.0,61,0.00,,,0.00,weatherlink.com 1.10,2013-04-07 02:01:00,
2013-04-06 21:16:00,55.5,43.0,29.70,WNW,284,4.0,7.0,63,0.00,,,0.00,weatherlink.com 1.10,2013-04-07 02:16:00,
2013-04-06 21:46:00,54.3,43.0,29.71,WNW,284,0.0,4.0,65,0.00,,,0.00,weatherlink.com 1.10,2013-04-07 02:46:00,
2013-04-06 22:31:00,53.1,43.0,29.73,WNW,285,5.0,6.0,68,0.00,,,0.00,weatherlink.com 1.10,2013-04-07 03:31:00,
2013-04-06 22:46:00,52.6,43.0,29.74,WNW,288,5.0,8.0,69,0.00,,,0.00,weatherlink.com 1.10,2013-04-07 03:46:00,
2013-04-06 23:01:00,52.1,43.0,29.75,WNW,288,3.0,5.0,70,0.00,,,0.00,weatherlink.com 1.10,2013-04-07 04:01:00,
2013-04-06 23:31:00,50.4,42.0,29.76,WNW,288,5.0,6.0,74,0.00,,,0.00,weatherlink.com 1.10,2013-04-07 04:31:00,
2013-04-06 23:46:00,49.8,43.0,29.76,WNW,292,2.0,7.0,76,0.00,,,0.00,weatherlink.com 1.10,2013-04-07 04:46:00,